Regional Weather Roundup
Issued by NWS

Home | Current Version | Previous Version | Graphics & Text | Print | Product List | Glossary On
Versions: 1 2 3 4 5 6 7 8 9 10 11 12 13 14 15 16 17 18 19 20 21 22 23 24 25 26 27 28 29 30 31 32 33 34 35 36 37 38 39 40 41 42 43 44 45 46 47 48 49 50
000
ASUS43 KFSD 192102
RWRSD

WEATHER ROUNDUP FOR SOUTH DAKOTA
NATIONAL WEATHER SERVICE SIOUX FALLS SD
300 PM CST FRI DEC 19 2014

NOTE: "FAIR" INDICATES FEW OR NO CLOUDS BELOW 12,000 FEET WITH NO
SIGNIFICANT WEATHER AND/OR OBSTRUCTIONS TO VISIBILITY.


SDZ001>005-009-010-012>017-192200-
NORTHWEST AND NORTH CENTRAL SOUTH DAKOTA

CITY           SKY/WX    TMP DP  RH WIND       PRES   REMARKS
BUFFALO          N/A     44  23  43 W7        29.83S
MOBRIDGE       MOSUNNY   34  28  79 SE6       29.90F WCI  29
$$

SDZ012>016-024>037-041>051-057-063-072>074-192200-
SOUTHWEST AND SOUTH CENTRAL SOUTH DAKOTA

CITY           SKY/WX    TMP DP  RH WIND       PRES   REMARKS
RAPID CTY ARPT CLOUDY    45  26  47 E3        29.94R
PIERRE         PTSUNNY   28  24  85 SE7       29.95F WCI  21
CUSTER         PTSUNNY   40  15  36 W9        29.91S
ELLSWORTH AFB  CLOUDY    44  26  50 E5        29.93S
PHILIP         CLOUDY    47  26  44 W5        29.94S
PINE RIDGE     SUNNY     41  23  48 W8        29.95F
WINNER         FAIR      38  25  59 CALM      29.96F
$$

SDZ004>011-016>023-039-040-192200-
NORTHEAST SOUTH DAKOTA

CITY           SKY/WX    TMP DP  RH WIND       PRES   REMARKS
ABERDEEN       CLOUDY    30  26  85 S17       29.99F FOG     WCI  18
WATERTOWN      CLOUDY    28  27  96 S17       30.01F FOG     WCI  16
SISSETON         N/A     31  28  89 S12       30.02S WCI  22
$$

SDZ017-020-022-023-036>040-048>070-192200-
SOUTHEAST SOUTH DAKOTA

CITY           SKY/WX    TMP DP  RH WIND       PRES   REMARKS
SIOUX FALLS    CLOUDY    30  28  92 S16       30.08F WCI  19
HURON          CLOUDY    30  28  92 S13       30.02F FOG     WCI  20
MITCHELL       CLOUDY    31  29  92 S15       30.04F FOG     WCI  20
YANKTON        CLOUDY    30  28  93 S10G16    30.09F WCI  21
$$

ABBREVIATIONS USED IN REMARKS
   TC - TEMPERATURE IN CELSIUS
  WCI - WIND CHILL INDEX
   HX - HEAT INDEX
  VSB - VISIBILITY



USA.gov is the U.S. government's official web portal to all federal, state and local government web resources and services.